McCarran International Airport
KLAS : now visible

Airfield :











YOU CAN JOIN US ON...

 
LOGIN :

Register | Disclaimer

   EN    FR    IT 

 









Legend :    VFR   Marginal VFR   IFR   Intensive IFR   Very Intensive IFR
Visi :
Ceiling :
>= 8 km
>= 3000ft
5 to 8 km
1000 to 3000 ft
1500m to 5 km
500 to 1000 ft
800 to 1500m
200 to 500 ft
< 800m
< 200 ft
Symbols :   Thunderstorms  Fog  Heavy snow  Heavy precipitations  Wind > 20 kt







- Airport Elevation : 2181 ft
- IATA code : LAS


KLAS - McCarran International

CURRENT METAR :
  • 201556Z 27006KT 10SM CLR 21/M01 A2992 RMK AO2 SLP112 T02111006

EXPIRED METARs :
  • 201456Z 23005KT 10SM CLR 19/M01 A2990 RMK AO2 SLP104 T01941006 53018
  • 201356Z 31007KT 10SM CLR 19/00 A2988 RMK AO2 SLP096 T01940000

TAF KLAS
Valid from the 20 at 15:00 until the 21 at 18:00 UTC


201440Z 2015/2118 31014G22KT P6SM SKC
FM201900 35010G16KT P6SM SKC
FM202100 03005KT P6SM SKC
FM210400 24007KT P6SM SKC
No reported NOTAMs for that airfield.



MET'MAP, your aeronautical weather chart ! - Copyright ORBIFLY December 2007 - Disclaimer

ORBIFLY MET'MAP TEAM :

Programming & Development : Alexandra Zaïnal
Concept & Development : Baudouin d'Aumeries
Co-Development & Prog : Marc-Olivier Méhu
Technical & hardware support : Manuel Goepfert

Contact : metmap@orbifly.com




SOURCES & CREDITS :

   NOAA       Earth
Advisory